Date String (YYYY-MM-DD hh:mm:ss) UTC,Instrument flags,absolute air pressure of the measurement (hPa),sample flow rate (lpm),inlet stack bypass flow (lpm),air temperature of the measurement (°C),ambient temperature measured by the external sensor (°C),aerosol sample conditioner tube jacket temperature (°C),OPC LED temperature (°C),internal box temperature (°C),relative humidity of the measurement (%),span deviation,mass concentration of particles derived from Lorenz-Mie calculation of OPC scattering (μg/m³),mass concentration of particles derived from Lorenz-Mie calculation of OPC scattering (μg/m³),mass concentration of particles derived from Lorenz-Mie calculation of OPC scattering (μg/m³)
DateTimeUTC,F1_M11,P_M11,Q1_M11,Q2_M11,T1_M11,T2_M11,T3_M11,T4_M11,T5_M11,U1_M11,ZSPAN_M11,X2_M11,X0_M11,X1_M11
2023-10-15 12:00:00,SystemResetWarning,0839.2,5.00,000.00,024.9,023.4,000.0,033.3,026.6,15.2,0000.0,0004.78,0009.37,0004.29
2023-10-15 12:01:00,SystemResetWarning,0839.2,5.00,000.00,024.9,023.4,000.0,033.3,026.6,15.2,0000.0,0004.80,0009.44,0004.29
2023-10-15 12:02:00,SystemResetWarning,0839.2,5.00,000.00,024.9,023.4,000.0,033.3,026.6,15.2,0000.0,0004.82,0011.29,0004.28
2023-10-15 12:03:00,SystemResetWarning,0839.2,5.00,000.00,024.9,023.4,000.0,033.3,026.6,15.3,0000.0,0004.84,0012.65,0004.28
2023-10-15 12:04:00,SystemResetWarning,0839.2,5.00,000.00,024.9,023.3,000.0,033.3,026.6,15.3,0000.0,0004.89,0012.59,0004.28
2023-10-15 12:05:00,SystemResetWarning,0839.2,5.00,000.00,024.9,023.3,000.0,033.3,026.6,15.3,0000.0,0004.94,0013.22,0004.27
2023-10-15 12:06:00,SystemResetWarning,0839.2,5.00,000.00,024.9,023.3,000.0,033.3,026.6,15.2,0000.0,0004.97,0013.79,0004.26
2023-10-15 12:07:00,SystemResetWarning,0839.2,5.00,000.00,024.9,023.3,000.0,033.3,026.6,15.3,0000.0,0005.02,0014.26,0004.27
2023-10-15 12:08:00,SystemResetWarning,0839.2,5.00,000.00,024.9,023.3,000.0,033.3,026.5,15.3,0000.0,0005.15,0015.20,0004.28
2023-10-15 12:09:00,SystemResetWarning,0839.2,5.00,000.00,024.8,023.3,000.0,033.3,026.5,15.3,0000.0,0005.22,0016.39,0004.29
2023-10-15 12:10:00,SystemResetWarning,0839.2,5.00,000.00,024.8,023.3,000.0,033.3,026.5,15.3,0000.0,0005.28,0018.29,0004.29
2023-10-15 12:11:00,SystemResetWarning,0839.1,5.01,000.00,024.8,023.2,000.0,033.3,026.5,15.2,0000.0,0005.29,0018.52,0004.28
2023-10-15 12:12:00,SystemResetWarning,0839.1,5.00,000.00,024.8,023.2,000.0,033.3,026.5,15.2,0000.0,0005.26,0018.30,0004.27
2023-10-15 12:13:00,SystemResetWarning,0839.1,5.00,000.00,024.8,023.2,000.0,033.3,026.5,15.1,0000.0,0005.23,0016.96,0004.27
2023-10-15 12:14:00,SystemResetWarning,0839.1,5.00,000.00,024.8,023.2,000.0,033.3,026.5,15.0,0000.0,0005.20,0015.24,0004.26
2023-10-15 12:15:00,SystemResetWarning,0839.1,5.00,000.00,024.8,023.2,000.0,033.3,026.5,15.1,0000.0,0005.17,0014.99,0004.24
2023-10-15 12:16:00,SystemResetWarning,0839.1,5.00,000.00,024.8,023.2,000.0,033.3,026.5,15.1,0000.0,0005.12,0014.38,0004.24
2023-10-15 12:17:00,SystemResetWarning,0839.1,5.00,000.00,024.8,023.2,000.0,033.3,026.4,15.1,0000.0,0005.06,0013.54,0004.24
2023-10-15 12:18:00,SystemResetWarning,0839.1,5.00,000.00,024.7,023.2,000.0,033.3,026.4,15.2,0000.0,0004.99,0013.30,0004.23
2023-10-15 12:19:00,SystemResetWarning,0839.1,5.00,000.00,024.7,023.1,000.0,033.3,026.4,15.2,0000.0,0004.89,0012.44,0004.23
2023-10-15 12:20:00,SystemResetWarning,0839.1,5.00,000.00,024.7,023.1,000.0,033.3,026.4,15.2,0000.0,0004.85,0011.39,0004.23
2023-10-15 12:21:00,SystemResetWarning,0839.1,5.00,000.00,024.7,023.1,000.0,033.2,026.4,15.2,0000.0,0004.83,0009.72,0004.24
2023-10-15 12:22:00,SystemResetWarning,0839.1,5.00,000.00,024.7,023.1,000.0,033.2,026.4,15.2,0000.0,0004.80,0009.79,0004.22
2023-10-15 12:23:00,SystemResetWarning,0839.1,5.00,000.00,024.7,023.1,000.0,033.2,026.4,15.2,0000.0,0004.81,0009.95,0004.22
2023-10-15 12:24:00,SystemResetWarning,0839.1,5.00,000.00,024.7,023.1,000.0,033.2,026.4,15.2,0000.0,0004.80,0010.46,0004.20
2023-10-15 12:25:00,SystemResetWarning,0839.1,5.00,000.00,024.7,023.0,000.0,033.2,026.3,15.2,0000.0,0004.82,0011.37,0004.20
2023-10-15 12:26:00,SystemResetWarning,0839.1,5.00,000.00,024.7,023.0,000.0,033.2,026.3,15.2,0000.0,0004.82,0011.43,0004.22
2023-10-15 12:27:00,SystemResetWarning,0839.0,5.00,000.00,024.7,023.0,000.0,033.2,026.3,15.3,0000.0,0004.82,0011.35,0004.21
2023-10-15 12:28:00,SystemResetWarning,0838.9,5.00,000.00,024.6,023.0,000.0,033.2,026.3,15.4,0000.0,0004.85,0011.75,0004.21
2023-10-15 12:29:00,SystemResetWarning,0838.9,5.00,000.00,024.6,023.0,000.0,033.2,026.3,15.5,0000.0,0004.90,0011.66,0004.21
2023-10-15 12:30:00,SystemResetWarning,0838.9,5.00,000.00,024.6,023.0,000.0,033.1,026.3,15.5,0000.0,0004.89,0011.52,0004.21
2023-10-15 12:31:00,SystemResetWarning,0838.9,5.00,000.00,024.6,023.0,000.0,033.1,026.3,15.5,0000.0,0004.84,0011.39,0004.20
2023-10-15 12:32:00,SystemResetWarning,0838.9,5.00,000.00,024.6,022.9,000.0,033.1,026.3,15.5,0000.0,0004.81,0011.65,0004.18
2023-10-15 12:33:00,SystemResetWarning,0839.0,5.00,000.00,024.6,022.9,000.0,033.1,026.3,15.6,0000.0,0004.77,0011.53,0004.18
2023-10-15 12:34:00,SystemResetWarning,0839.1,5.00,000.00,024.6,022.9,000.0,033.1,026.3,15.5,0000.0,0004.72,0011.23,0004.17
2023-10-15 12:35:00,SystemResetWarning,0839.1,5.00,000.00,024.6,022.9,000.0,033.1,026.2,15.5,0000.0,0004.66,0010.66,0004.17
2023-10-15 12:36:00,SystemResetWarning,0839.1,4.99,000.00,024.6,022.9,000.0,033.1,026.2,15.5,0000.0,0004.59,0009.72,0004.17
2023-10-15 12:37:00,SystemResetWarning,0839.1,5.00,000.00,024.6,022.9,000.0,033.1,026.2,15.5,0000.0,0004.56,0009.34,0004.15
2023-10-15 12:38:00,SystemResetWarning,0839.1,5.00,000.00,024.5,022.9,000.0,033.1,026.2,15.5,0000.0,0004.57,0010.19,0004.15
2023-10-15 12:39:00,SystemResetWarning,0839.1,5.00,000.00,024.5,022.9,000.0,033.1,026.2,15.5,0000.0,0004.52,0010.08,0004.14
2023-10-15 12:40:00,SystemResetWarning,0839.1,5.01,000.00,024.5,022.9,000.0,033.0,026.2,15.5,0000.0,0004.44,0010.06,0004.12
2023-10-15 12:41:00,SystemResetWarning,0839.1,5.00,000.00,024.5,022.9,000.0,033.0,026.2,15.5,0000.0,0004.42,0010.06,0004.10
2023-10-15 12:42:00,SystemResetWarning,0839.1,5.00,000.00,024.5,022.9,000.0,033.0,026.2,15.5,0000.0,0004.40,0011.11,0004.09
2023-10-15 12:43:00,SystemResetWarning,0839.0,5.00,000.00,024.5,022.9,000.0,033.0,026.2,15.5,0000.0,0004.38,0010.91,0004.08
2023-10-15 12:44:00,SystemResetWarning,0839.0,5.00,000.00,024.5,022.8,000.0,033.0,026.2,15.5,0000.0,0004.38,0010.63,0004.08
2023-10-15 12:45:00,SystemResetWarning,0839.1,5.00,000.00,024.5,022.8,000.0,033.0,026.2,15.4,0000.0,0004.38,0010.69,0004.04
2023-10-15 12:46:00,SystemResetWarning,0839.1,5.00,000.00,024.5,022.8,000.0,033.0,026.2,15.4,0000.0,0004.36,0010.72,0004.00
2023-10-15 12:47:00,SystemResetWarning,0839.1,5.00,000.00,024.5,022.8,000.0,033.0,026.1,15.4,0000.0,0004.34,0010.58,0003.96
2023-10-15 12:48:00,SystemResetWarning,0839.1,5.00,000.00,024.5,022.8,000.0,033.0,026.1,15.4,0000.0,0004.28,0010.47,0003.91
2023-10-15 12:49:00,SystemResetWarning,0839.1,5.00,000.00,024.5,022.8,000.0,033.0,026.1,15.4,0000.0,0004.18,0009.49,0003.84
2023-10-15 12:50:00,SystemResetWarning,0839.1,5.00,000.00,024.4,022.8,000.0,033.0,026.1,15.5,0000.0,0004.14,0009.31,0003.79
2023-10-15 12:51:00,SystemResetWarning,0839.1,5.00,000.00,024.4,022.8,000.0,033.0,026.1,15.6,0000.0,0004.08,0008.70,0003.75
2023-10-15 12:52:00,SystemResetWarning,0839.1,5.00,000.00,024.4,022.8,000.0,033.0,026.1,15.5,0000.0,0004.04,0008.55,0003.73
2023-10-15 12:53:00,SystemResetWarning,0839.1,5.00,000.00,024.4,022.8,000.0,033.0,026.1,15.5,0000.0,0004.03,0008.03,0003.70
2023-10-15 12:54:00,SystemResetWarning,0839.1,4.99,000.00,024.4,022.8,000.0,032.9,026.1,15.5,0000.0,0004.00,0007.52,0003.69
2023-10-15 12:55:00,SystemResetWarning,0839.1,5.00,000.00,024.4,022.8,000.0,032.9,026.1,15.5,0000.0,0003.99,0007.30,0003.69
2023-10-15 12:56:00,SystemResetWarning,0839.1,5.00,000.00,024.4,022.8,000.0,032.9,026.1,15.5,0000.0,0004.00,0007.24,0003.71
2023-10-15 12:57:00,SystemResetWarning,0839.2,4.99,000.00,024.4,022.8,000.0,032.9,026.1,15.5,0000.0,0004.05,0007.35,0003.74
2023-10-15 12:58:00,SystemResetWarning,0839.2,5.00,000.00,024.4,022.8,000.0,032.9,026.1,15.5,0000.0,0004.05,0007.32,0003.75
2023-10-15 12:59:00,SystemResetWarning,0839.2,5.00,000.00,024.4,022.8,000.0,032.9,026.1,15.5,0000.0,0004.04,0007.30,0003.76
